Regional Weather Roundup
Issued by NWS Green Bay, WI

Home | Current Version | Previous Version | Text Only | Print | Product List | Glossary On
Versions: 1 2 3 4 5 6 7 8 9 10 11 12 13 14 15 16 17 18 19 20 21 22 23 24 25 26 27 28 29 30 31 32 33 34 35 36 37 38 39 40 41 42 43 44 45 46 47 48 49 50
876
ASUS43 KGRB 220401
RWRGRB

NORTH-CENTRAL AND NORTHEAST WISCONSIN REGIONAL WEATHER ROUNDUP
NATIONAL WEATHER SERVICE GREEN BAY WI
1100 PM CDT MON AUG 21 2017

WIZ005-009-010>012-018-019-220500-
NORTH CENTRAL WISCONSIN

CITY           SKY/WX    TMP DP  RH WIND       PRES   REMARKS
IRONWOOD       RAIN      63  61  93 W5        29.80S
MANITOWISH WTR NOT AVBL
ARBOR VITAE    NOT AVBL
EAGLE RIVER    NOT AVBL
LAND O LAKES   NOT AVBL
RHINELANDER    CLOUDY    67  67 100 SW12      29.85F
PHILLIPS       NOT AVBL
ANTIGO         NOT AVBL
TOMAHAWK       NOT AVBL
MERRILL        NOT AVBL
$$

WIZ013-073-220500-
NORTHEAST WISCONSIN

CITY           SKY/WX    TMP DP  RH WIND       PRES   REMARKS
IRON MOUNTAIN  CLOUDY    67  65  93 SE3       29.80F FOG
MARINETTE      CLOUDY    72  68  87 W3        29.80F
$$

WIZ017-030-035>037-045-220500-
CENTRAL WISCONSIN

CITY           SKY/WX    TMP DP  RH WIND       PRES   REMARKS
MEDFORD        NOT AVBL
WAUSAU         CLOUDY    67  63  87 SW5       29.82F
MOSINEE        NOT AVBL
MARSHFIELD     CLOUDY    66  61  84 W8        29.85F
WISC RAPIDS    CLOUDY    66  65  96 W5        29.87F
STEVENS POINT  NOT AVBL
WAUPACA        NOT AVBL
SHAWANO        NOT AVBL
CLINTONVILLE   NOT AVBL
WAUTOMA        MOCLDY    68  66  93 SW6       29.85R
$$

WIZ038-039-048-051-220500-
FOX VALLEY

CITY           SKY/WX    TMP DP  RH WIND       PRES   REMARKS
NWS GREEN BAY  CLOUDY    72  71  97 CALM      29.80F
APPLETON       PTCLDY    72  64  78 SW6       29.82F
OSHKOSH        LGT RAIN  72  66  81 S6        29.81F
FOND DU LAC    CLOUDY    73  65  75 S8        29.82F
$$

WIZ022-050-052-220500-
EAST CENTRAL WISCONSIN

CITY           SKY/WX    TMP DP  RH WIND       PRES   REMARKS
EPHRAIM        NOT AVBL
WASHINGTON ISL NOT AVBL
STURGEON BAY   MOCLDY    71  69  93 S8        29.81F
MANITOWOC      NOT AVBL
SHEBOYGAN      CLOUDY    70  69  97 SW6       29.83F
$$

LMZ563-521-522-541>543-220500-
LAKESHORE

STATION/POSITION TIME  TEMP    WIND        PRES    VSBY  WAVE
                       AIR SEA DIR/SP/G                  HT/PER
                 (UTC) (F)     (DEG/KT/KT) (MB)    (MI)  (FT/S)
SHEBOYGAN LKSHOR 0300   74     190/  9/ 10 1010.5F
KEWAUNEE LKSHORE 0330   68     180/  9/ 10 1009.1F
N MID LAKE BUOY  0250   70 68  200/ 16/ 19 1010.2F         2/ 3
S GREEN BAY BUOY 0330   73 72  190/ 14/ 16 1009.0F
SISTER BAY LKSHO 0303   72     190/ 13/ 16   N/A
MENOMINEE LKSHOR 0330   74     200/  8/ 12 1008.7F
$$




USA.gov is the U.S. government's official web portal to all federal, state and local government web resources and services.